This demonstration page uses our WeatherBlox Daily Observations layout. Learn more.

39.29038, -76.61219

Hourly Observations for April 3, 2019

Temp ( °F °C ) Dew Point ( °F °C ) Humidity (%) Winds ( mph kmh ) Pressure ( in mb ) Visibility ( mi km ) Precip ( " mm )
12:54 am 00:54 undefined 46 7.8 34 1.1 63 63 undefined N/A 30.06 1018 N/A 0 0
1:54 am 01:54 undefined 45 7.2 34 1.1 66 66 undefined N/A 30.08 1019 N/A 0 0
2:54 am 02:54 undefined 45 7.2 33 0.6 63 63 undefined N/A 30.08 1019 N/A 0 0
3:54 am 03:54 undefined 43 6.1 33 0.6 68 68 undefined N/A 30.08 1019 N/A 0 0
4:54 am 04:54 undefined 42 5.6 32 0 68 68 undefined N/A 30.08 1019 N/A 0 0
5:54 am 05:54 undefined 41 5 32 0 70 70 undefined N/A 30.1 1019 N/A 0 0
6:54 am 06:54 undefined 40 4.4 31 -0.6 70 70 undefined N/A 30.12 1020 N/A 0 0
7:54 am 07:54 undefined 43 6.1 32 0 65 65 undefined N/A 30.14 1021 N/A 0 0
8:54 am 08:54 undefined 48 8.9 30 -1.1 50 50 undefined N/A 30.15 1021 N/A 0 0
9:54 am 09:54 undefined 54 12.2 31 -0.6 42 42 undefined N/A 30.15 1021 N/A 0 0
10:54 am 10:54 undefined 60 15.6 30 -1.1 32 32 undefined N/A 30.15 1021 N/A 0 0
11:54 am 11:54 undefined 63 17.2 30 -1.1 29 29 undefined N/A 30.14 1021 N/A 0 0
12:54 pm 12:54 undefined 64 17.8 28 -2.2 26 26 undefined N/A 30.12 1020 N/A 0 0
1:54 pm 13:54 undefined 67 19.4 29 -1.7 24 24 undefined N/A 30.1 1019 N/A 0 0
2:54 pm 14:54 undefined 68 20 24 -4.4 19 19 undefined N/A 30.09 1019 N/A 0 0
3:54 pm 15:54 undefined 70 21.1 21 -6.1 16 16 undefined N/A 30.08 1019 N/A 0 0
4:54 pm 16:54 undefined 69 20.6 19 -7.2 15 15 undefined N/A 30.1 1019 N/A 0 0
5:54 pm 17:54 undefined 67 19.4 20 -6.7 17 17 undefined N/A 30.11 1020 N/A 0 0
6:54 pm 18:54 undefined 65 18.3 21 -6.1 19 19 undefined N/A 30.15 1021 N/A 0 0
7:54 pm 19:54 undefined 64 17.8 21 -6.1 19 19 undefined N/A 30.18 1022 N/A 0 0
8:54 pm 20:54 undefined 62 16.7 22 -5.6 21 21 undefined N/A 30.21 1023 N/A 0 0
9:54 pm 21:54 undefined 60 15.6 21 -6.1 22 22 undefined N/A 30.24 1024 N/A 0 0
10:54 pm 22:54 undefined 58 14.4 20 -6.7 23 23 undefined N/A 30.26 1025 N/A 0 0
11:54 pm 23:54 undefined 57 13.9 19 -7.2 23 23 undefined N/A 30.27 1025 N/A 0 0

Powered by AerisWeather